RYR4YD LGSA-EPMO

Flight info

Callsign RYR4YD
Flight time 2h 50m
Altitude 38000
Route SOKRI UY151 VELOP DCT ATV UM749 SKP UL617 BAMOS/N0444F370 DCT PEREN/N0445F380 UN133 ATFIR N133 USALI DCT LOMOS DCT TIXIP DCT KENIN DCT ROBTU/N0443F390 DCT KEFIR DCT MONOV/N0443F380 L621 LIMVI
Aircraft B38M/M-SADE3FGILRWY/SB1

Departure

Time 2026-04-24 16:41
Airport Chania International Airport (LGSA)

Arrival

Time 2026-04-24 19:32
Airport Warsaw Modlin Airport (EPMO)
Time Latitude Longitude Altitude Speed Heading
2026-04-24 16:18 35.53929 24.13889 500 ft 0 kts 21°
2026-04-24 16:32 35.53920 24.13885 528 ft 4 kts 21°
2026-04-24 16:32 35.53895 24.13873 500 ft 4 kts 21°
2026-04-24 16:32 35.53874 24.13864 500 ft 4 kts
2026-04-24 16:33 35.53852 24.13868 500 ft 4 kts 317°
2026-04-24 16:33 35.53838 24.13895 500 ft 4 kts 291°
2026-04-24 16:33 35.53829 24.13924 500 ft 4 kts 291°
2026-04-24 16:33 35.53825 24.13938 500 ft 0 kts 292°
2026-04-24 16:37 35.53825 24.13937 500 ft 1 kts 292°
2026-04-24 16:38 35.53830 24.13924 500 ft 3 kts 291°
2026-04-24 16:38 35.53839 24.13893 500 ft 5 kts 291°
2026-04-24 16:38 35.53843 24.13846 500 ft 6 kts 245°
2026-04-24 16:38 35.53803 24.13815 500 ft 8 kts 202°
2026-04-24 16:39 35.53756 24.13778 501 ft 9 kts 250°
2026-04-24 16:39 35.53774 24.13706 501 ft 10 kts 292°
2026-04-24 16:39 35.53802 24.13619 501 ft 12 kts 291°
2026-04-24 16:39 35.53823 24.13523 500 ft 10 kts 248°
2026-04-24 16:40 35.53764 24.13480 500 ft 11 kts 201°
2026-04-24 16:40 35.53688 24.13448 500 ft 10 kts 181°
2026-04-24 16:40 35.53654 24.13506 501 ft 10 kts 112°
2026-04-24 16:40 35.53609 24.13643 502 ft 25 kts 111°
2026-04-24 16:41 35.53481 24.14037 501 ft 85 kts 111°
2026-04-24 16:41 35.53180 24.14963 494 ft 148 kts 111°
2026-04-24 16:41 35.52759 24.16255 843 ft 170 kts 111°
2026-04-24 16:41 35.52311 24.17648 1468 ft 182 kts 109°
2026-04-24 16:42 35.51857 24.19103 2271 ft 189 kts 107°
2026-04-24 16:42 35.51361 24.20737 2700 ft 217 kts 107°
2026-04-24 16:42 35.50837 24.22434 3804 ft 211 kts 108°
2026-04-24 16:42 35.50304 24.24144 4694 ft 217 kts 109°
2026-04-24 16:43 35.49743 24.25887 5618 ft 222 kts 109°
2026-04-24 16:43 35.49175 24.27642 6510 ft 226 kts 110°
2026-04-24 16:43 35.48585 24.29462 7370 ft 231 kts 110°
2026-04-24 16:43 35.47988 24.31307 8239 ft 234 kts 110°
2026-04-24 16:44 35.47380 24.33180 9109 ft 237 kts 110°
2026-04-24 16:44 35.46801 24.35055 9955 ft 239 kts 104°
2026-04-24 16:44 35.46713 24.37077 10672 ft 241 kts 74°
2026-04-24 16:44 35.47529 24.38868 11313 ft 247 kts 44°
2026-04-24 16:45 35.48458 24.39680 11790 ft 249 kts 23°
2026-04-24 16:45 35.50165 24.40053 12415 ft 255 kts 351°
2026-04-24 16:45 35.51805 24.39282 13055 ft 256 kts 319°
2026-04-24 16:45 35.52884 24.37594 13790 ft 252 kts 287°
2026-04-24 16:46 35.53104 24.35497 14396 ft 248 kts 260°
2026-04-24 16:46 35.52901 24.33416 15081 ft 250 kts 265°
2026-04-24 16:46 35.52827 24.31276 15816 ft 251 kts 264°
2026-04-24 16:46 35.52748 24.29131 16550 ft 251 kts 264°
2026-04-24 16:47 35.52668 24.26980 17276 ft 251 kts 264°
2026-04-24 16:47 35.52587 24.24836 17999 ft 252 kts 264°
2026-04-24 16:47 35.52504 24.22683 18628 ft 253 kts 264°
2026-04-24 16:47 35.52421 24.20545 19170 ft 256 kts 264°
2026-04-24 16:48 35.52352 24.18348 19660 ft 262 kts 268°
2026-04-24 16:48 35.52781 24.16087 19932 ft 282 kts 288°
2026-04-24 16:48 35.53511 24.13790 20237 ft 294 kts 285°
2026-04-24 16:48 35.54233 24.11410 20732 ft 298 kts 285°
2026-04-24 16:49 35.54970 24.09015 21283 ft 302 kts 285°
2026-04-24 16:49 35.55713 24.06620 21826 ft 305 kts 285°
2026-04-24 16:49 35.56480 24.04156 22276 ft 312 kts 285°
2026-04-24 16:49 35.57262 24.01647 22802 ft 314 kts 285°
2026-04-24 16:50 35.57784 23.99974 23144 ft 317 kts 285°
2026-04-24 16:50 35.58848 23.96558 23760 ft 321 kts 285°
2026-04-24 16:50 35.59641 23.94011 24193 ft 323 kts 284°
2026-04-24 16:50 35.60448 23.91419 24630 ft 325 kts 284°
2026-04-24 16:51 35.61259 23.88810 25059 ft 327 kts 284°
2026-04-24 16:51 35.62075 23.86181 25479 ft 329 kts 283°
2026-04-24 16:51 35.62882 23.83580 25874 ft 331 kts 283°
2026-04-24 16:51 35.63706 23.80925 26280 ft 333 kts 283°
2026-04-24 16:52 35.64530 23.78263 26678 ft 335 kts 283°
2026-04-24 16:52 35.65362 23.75577 27089 ft 336 kts 283°
2026-04-24 16:52 35.66196 23.72878 27473 ft 339 kts 282°
2026-04-24 16:52 35.67043 23.70136 27721 ft 344 kts 281°
2026-04-24 16:53 35.67892 23.67385 28136 ft 344 kts 281°
2026-04-24 16:53 35.68744 23.64622 28478 ft 347 kts 281°
2026-04-24 16:53 35.69772 23.61891 28816 ft 361 kts 294°
2026-04-24 16:53 35.71455 23.59504 29165 ft 379 kts 311°
2026-04-24 16:54 35.73698 23.57728 29407 ft 399 kts 329°
2026-04-24 16:54 35.76422 23.56832 29689 ft 415 kts 350°
2026-04-24 16:54 35.79323 23.56585 29918 ft 418 kts 347°
2026-04-24 16:54 35.82192 23.56049 30275 ft 414 kts 346°
2026-04-24 16:55 35.85035 23.55503 30738 ft 410 kts 346°
2026-04-24 16:55 35.87862 23.54940 30913 ft 416 kts 345°
2026-04-24 16:55 35.90768 23.54353 30846 ft 427 kts 345°
2026-04-24 16:55 35.93702 23.53757 30861 ft 437 kts 346°
2026-04-24 16:56 35.99817 23.52510 30952 ft 454 kts 346°
2026-04-24 16:56 36.06196 23.51207 30968 ft 473 kts 346°
2026-04-24 16:57 36.09458 23.50541 31273 ft 474 kts 346°
2026-04-24 16:57 36.12716 23.49874 31623 ft 474 kts 346°
2026-04-24 16:57 36.15938 23.49214 31956 ft 474 kts 346°
2026-04-24 16:57 36.19203 23.48544 32298 ft 475 kts 346°
2026-04-24 16:58 36.22473 23.47874 32631 ft 475 kts 346°
2026-04-24 16:58 36.25740 23.47202 32961 ft 475 kts 347°
2026-04-24 16:58 36.29008 23.46530 33377 ft 473 kts 347°
2026-04-24 16:58 36.32199 23.45874 33948 ft 468 kts 348°
2026-04-24 16:59 36.35397 23.45215 34405 ft 463 kts 348°
2026-04-24 16:59 36.38576 23.44559 34770 ft 461 kts 348°
2026-04-24 16:59 36.44893 23.43255 35358 ft 460 kts 348°
2026-04-24 17:00 36.48051 23.42601 35661 ft 459 kts 349°
2026-04-24 17:00 36.54306 23.41306 36207 ft 458 kts 349°
2026-04-24 17:00 36.57456 23.40654 36466 ft 457 kts 349°
2026-04-24 17:01 36.63718 23.39355 37043 ft 455 kts 349°
2026-04-24 17:01 36.66849 23.38704 37264 ft 455 kts 349°
2026-04-24 17:02 36.73046 23.37416 37741 ft 453 kts 349°
2026-04-24 17:02 36.76154 23.36768 37962 ft 452 kts 350°
2026-04-24 17:02 36.82374 23.35472 37980 ft 450 kts 350°
2026-04-24 17:03 36.91613 23.33543 37988 ft 450 kts 350°
2026-04-24 17:04 36.97796 23.32249 37990 ft 450 kts 350°
2026-04-24 17:04 37.07031 23.30314 37991 ft 449 kts 351°
2026-04-24 17:05 37.13227 23.29188 37972 ft 448 kts
2026-04-24 17:05 37.19094 23.31211 38000 ft 445 kts 32°
2026-04-24 17:06 37.21689 23.33354 38007 ft 446 kts 33°
2026-04-24 17:06 37.29803 23.38997 37977 ft 444 kts 30°
2026-04-24 17:07 37.35213 23.42759 37992 ft 444 kts 29°
2026-04-24 17:08 37.46068 23.50334 37988 ft 445 kts 30°
2026-04-24 17:08 37.51460 23.54106 37999 ft 445 kts 29°
2026-04-24 17:09 37.62272 23.61689 37999 ft 444 kts 30°
2026-04-24 17:10 37.73028 23.69257 37993 ft 443 kts 30°
2026-04-24 17:12 37.95572 23.79365 37964 ft 445 kts 355°
2026-04-24 18:54 49.47579 21.81843 38008 ft 387 kts 355°
2026-04-24 18:55 49.55656 21.81392 38010 ft 388 kts 355°
2026-04-24 18:56 49.61060 21.81089 38005 ft 388 kts 355°
2026-04-24 18:56 49.66461 21.80785 38005 ft 387 kts 355°
2026-04-24 18:57 49.71823 21.80483 38004 ft 387 kts 355°
2026-04-24 18:57 49.77223 21.80179 38016 ft 388 kts 354°
2026-04-24 18:58 49.82631 21.79872 38003 ft 388 kts 354°
2026-04-24 18:58 49.87993 21.79569 37989 ft 386 kts 354°
2026-04-24 18:59 49.93371 21.79263 37989 ft 386 kts 354°
2026-04-24 18:59 49.98746 21.78957 38014 ft 387 kts 354°
2026-04-24 19:00 50.04111 21.78651 37980 ft 388 kts 354°
2026-04-24 19:00 50.09516 21.78342 37985 ft 388 kts 354°
2026-04-24 19:01 50.14910 21.78033 37994 ft 388 kts 354°
2026-04-24 19:01 50.20315 21.77722 37998 ft 388 kts 354°
2026-04-24 19:02 50.24811 21.77463 37990 ft 390 kts 354°
2026-04-24 19:02 50.31127 21.77099 37983 ft 391 kts 354°
2026-04-24 19:03 50.36568 21.76784 37980 ft 391 kts 354°
2026-04-24 19:03 50.42005 21.76468 37961 ft 390 kts 354°
2026-04-24 19:04 50.47390 21.76156 37989 ft 389 kts 354°
2026-04-24 19:04 50.50085 21.75999 37788 ft 386 kts 354°
2026-04-24 19:04 50.52762 21.75843 37514 ft 382 kts 354°
2026-04-24 19:04 50.55408 21.75688 37287 ft 380 kts 354°
2026-04-24 19:05 50.58040 21.75534 37051 ft 377 kts 354°
2026-04-24 19:05 50.60669 21.75381 36815 ft 375 kts 354°
2026-04-24 19:05 50.62393 21.75280 36654 ft 374 kts 354°
2026-04-24 19:05 50.64994 21.75127 36426 ft 372 kts 354°
2026-04-24 19:06 50.68421 21.74926 36124 ft 371 kts 354°
2026-04-24 19:06 50.70173 21.74823 35979 ft 376 kts 354°
2026-04-24 19:06 50.72787 21.74670 35782 ft 385 kts 354°
2026-04-24 19:06 50.75484 21.74511 35557 ft 391 kts 354°
2026-04-24 19:07 50.78218 21.74351 35337 ft 393 kts 354°
2026-04-24 19:07 50.80960 21.74189 35126 ft 394 kts 354°
2026-04-24 19:07 50.83668 21.74030 34908 ft 394 kts 354°
2026-04-24 19:07 50.86411 21.73867 34695 ft 394 kts 354°
2026-04-24 19:08 50.89160 21.73705 34490 ft 394 kts 354°
2026-04-24 19:08 50.91898 21.73543 34269 ft 394 kts 354°
2026-04-24 19:08 50.94636 21.73380 34062 ft 394 kts 354°
2026-04-24 19:08 50.97354 21.73219 33865 ft 395 kts 354°
2026-04-24 19:09 51.00106 21.73055 33602 ft 397 kts 354°
2026-04-24 19:09 51.02874 21.72890 33366 ft 398 kts 354°
2026-04-24 19:09 51.05648 21.72725 32912 ft 401 kts 354°
2026-04-24 19:09 51.08440 21.72558 32123 ft 400 kts 354°
2026-04-24 19:10 51.11225 21.72392 31428 ft 399 kts 354°
2026-04-24 19:10 51.13994 21.72227 30905 ft 395 kts 354°
2026-04-24 19:10 51.16718 21.72063 30459 ft 389 kts 353°
2026-04-24 19:10 51.19415 21.71901 29955 ft 385 kts 353°
2026-04-24 19:11 51.22049 21.71744 29403 ft 382 kts 354°
2026-04-24 19:11 51.24707 21.71584 28871 ft 377 kts 353°
2026-04-24 19:11 51.27322 21.71426 28382 ft 373 kts 353°
2026-04-24 19:11 51.29906 21.71270 27909 ft 369 kts 353°
2026-04-24 19:12 51.32432 21.71118 27429 ft 366 kts 353°
2026-04-24 19:12 51.34969 21.70965 26958 ft 362 kts 353°
2026-04-24 19:12 51.37514 21.70810 26482 ft 368 kts 353°
2026-04-24 19:12 51.40090 21.70655 26012 ft 371 kts 353°
2026-04-24 19:13 51.41800 21.70551 25690 ft 371 kts 353°
2026-04-24 19:13 51.45219 21.70344 25067 ft 369 kts 353°
2026-04-24 19:13 51.47785 21.70188 24603 ft 368 kts 353°
2026-04-24 19:13 51.50345 21.70032 24145 ft 366 kts 353°
2026-04-24 19:14 51.52886 21.69878 23690 ft 364 kts 353°
2026-04-24 19:14 51.55409 21.69725 23189 ft 362 kts 353°
2026-04-24 19:14 51.57889 21.69573 22692 ft 360 kts 353°
2026-04-24 19:14 51.60392 21.69421 22267 ft 359 kts 353°
2026-04-24 19:15 51.62888 21.69268 21844 ft 358 kts 354°
2026-04-24 19:15 51.65374 21.69116 21419 ft 356 kts 354°
2026-04-24 19:15 51.67850 21.68965 21007 ft 355 kts 354°
2026-04-24 19:15 51.70282 21.68815 20594 ft 353 kts 354°
2026-04-24 19:16 51.75177 21.68348 19766 ft 348 kts 346°
2026-04-24 19:16 51.77546 21.67598 19472 ft 346 kts 347°
2026-04-24 19:16 51.79921 21.66911 19146 ft 347 kts 347°
2026-04-24 19:17 51.82301 21.66243 18799 ft 346 kts 347°
2026-04-24 19:17 51.84644 21.65598 18438 ft 345 kts 348°
2026-04-24 19:17 51.87011 21.64951 18044 ft 344 kts 348°
2026-04-24 19:17 51.89367 21.64310 17649 ft 342 kts 348°
2026-04-24 19:18 51.91718 21.63658 17230 ft 342 kts 347°
2026-04-24 19:18 51.94025 21.62994 16874 ft 338 kts 347°
2026-04-24 19:18 51.96352 21.62326 16531 ft 339 kts 347°
2026-04-24 19:18 51.98681 21.61658 16176 ft 339 kts 347°
2026-04-24 19:19 52.00996 21.60993 15821 ft 337 kts 347°
2026-04-24 19:19 52.03305 21.60330 15458 ft 336 kts 347°
2026-04-24 19:19 52.05608 21.59668 15095 ft 335 kts 347°
2026-04-24 19:19 52.07825 21.58617 14532 ft 329 kts 332°
2026-04-24 19:20 52.09653 21.56538 14013 ft 321 kts 315°
2026-04-24 19:20 52.11212 21.54021 13594 ft 310 kts 315°
2026-04-24 19:20 52.12738 21.51621 13164 ft 300 kts 315°
2026-04-24 19:20 52.14221 21.49307 12745 ft 290 kts 315°
2026-04-24 19:21 52.15658 21.47076 12353 ft 281 kts 316°
2026-04-24 19:21 52.17058 21.44910 11869 ft 275 kts 316°
2026-04-24 19:21 52.18447 21.42769 11322 ft 274 kts 316°
2026-04-24 19:21 52.19828 21.40639 10771 ft 273 kts 316°
2026-04-24 19:22 52.20743 21.39229 10414 ft 272 kts 316°
2026-04-24 19:22 52.22557 21.36431 9706 ft 270 kts 317°
2026-04-24 19:22 52.23917 21.34332 9124 ft 268 kts 317°
2026-04-24 19:22 52.25276 21.32232 8550 ft 266 kts 316°
2026-04-24 19:23 52.26604 21.30179 7998 ft 264 kts 316°
2026-04-24 19:23 52.27936 21.28118 7485 ft 261 kts 316°
2026-04-24 19:23 52.29247 21.26086 7115 ft 256 kts 316°
2026-04-24 19:23 52.30529 21.24099 6832 ft 251 kts 316°
2026-04-24 19:24 52.31788 21.22144 6610 ft 247 kts 316°
2026-04-24 19:24 52.33023 21.20226 6381 ft 243 kts 316°
2026-04-24 19:24 52.34231 21.18350 6103 ft 241 kts 316°
2026-04-24 19:24 52.35440 21.16469 5818 ft 239 kts 316°
2026-04-24 19:25 52.36640 21.14601 5517 ft 237 kts 316°
2026-04-24 19:25 52.37828 21.12751 5258 ft 235 kts 316°
2026-04-24 19:25 52.39007 21.10912 4979 ft 233 kts 316°
2026-04-24 19:25 52.40177 21.09088 4704 ft 231 kts 316°
2026-04-24 19:26 52.41337 21.07278 4439 ft 228 kts 316°
2026-04-24 19:26 52.42453 21.05534 4313 ft 221 kts 316°
2026-04-24 19:26 52.43543 21.03830 4203 ft 212 kts 316°
2026-04-24 19:26 52.44592 21.02189 4080 ft 205 kts 316°
2026-04-24 19:27 52.45625 21.00572 3970 ft 204 kts 316°
2026-04-24 19:27 52.46639 20.98984 3886 ft 202 kts 316°
2026-04-24 19:27 52.47505 20.97260 3779 ft 193 kts 294°
2026-04-24 19:27 52.47718 20.95132 3618 ft 189 kts 268°
2026-04-24 19:28 52.47588 20.93010 3489 ft 186 kts 266°
2026-04-24 19:28 52.47434 20.90900 3354 ft 186 kts 265°
2026-04-24 19:28 52.47265 20.88786 3191 ft 187 kts 264°
2026-04-24 19:28 52.47089 20.86702 3121 ft 179 kts 264°
2026-04-24 19:29 52.46748 20.82778 2588 ft 175 kts 264°
2026-04-24 19:29 52.46571 20.80807 2265 ft 173 kts 264°
2026-04-24 19:29 52.46394 20.78870 1960 ft 168 kts 263°
2026-04-24 19:30 52.46229 20.77069 1713 ft 154 kts 264°
2026-04-24 19:30 52.46075 20.75390 1492 ft 142 kts 263°
2026-04-24 19:30 52.45929 20.73823 1298 ft 137 kts 263°
2026-04-24 19:30 52.45785 20.72276 1046 ft 136 kts 261°
2026-04-24 19:31 52.45636 20.70759 829 ft 137 kts 261°
2026-04-24 19:31 52.45492 20.69221 639 ft 136 kts 261°
2026-04-24 19:31 52.45356 20.67693 461 ft 135 kts 261°
2026-04-24 19:31 52.45219 20.66217 340 ft 120 kts 261°
2026-04-24 19:32 52.45125 20.65222 345 ft 60 kts 261°
2026-04-24 19:32 52.45082 20.64766 340 ft 31 kts 261°
2026-04-24 19:32 52.45052 20.64459 336 ft 13 kts 257°
2026-04-24 19:32 52.44988 20.64388 338 ft 13 kts 182°
2026-04-24 19:33 52.44894 20.64382 341 ft 10 kts 182°
2026-04-24 19:33 52.44822 20.64377 340 ft 10 kts 182°
2026-04-24 19:33 52.44772 20.64373 340 ft 7 kts 182°
2026-04-24 19:33 52.44720 20.64389 337 ft 8 kts 131°
2026-04-24 19:34 52.44718 20.64483 340 ft 8 kts 81°
2026-04-24 19:34 52.44727 20.64583 340 ft 10 kts 81°
2026-04-24 19:34 52.44739 20.64710 336 ft 12 kts 81°
2026-04-24 19:34 52.44754 20.64862 338 ft 15 kts 81°
2026-04-24 19:35 52.44767 20.64998 336 ft 6 kts 81°
2026-04-24 19:35 52.44755 20.65040 337 ft 4 kts 168°
2026-04-24 19:35 52.44745 20.65037 336 ft 1 kts 206°
2026-04-24 19:35 52.44731 20.65026 338 ft 3 kts 206°
2026-04-24 19:36 52.44722 20.65019 339 ft 0 kts 206°